Regional Weather Roundup
Issued by NWS

Home | Current Version | Previous Version | Graphics & Text | Print | Product List | Glossary On
Versions: 1 2 3 4 5 6 7 8 9 10 11 12 13 14 15 16 17 18 19 20 21 22 23 24 25 26 27
000
ASUS45 KTFX 222310
RWRMT
MONTANA REGIONAL WEATHER ROUNDUP
NATIONAL WEATHER SERVICE GREAT FALLS MT
400 PM MST MON JAN 22 2018

NOTE: "FAIR" INDICATES FEW OR NO CLOUDS BELOW 12000 FEET WITH NO
SIGNIFICANT WEATHER AND/OR OBSTRUCTIONS TO VISIBILITY.

MTZ001>007-043-230000-
WEST OF THE DIVIDE

CITY           SKY/WX    TMP DP  RH WIND       PRES   REMARKS
KALISPELL      CLOUDY    37  28  70 SE13      30.09R WCI  29
MISSOULA       FAIR      36  28  73 E6        30.14R WCI  31
BUTTE          PTSUNNY   27  19  72 CALM      30.08R
MULLAN PASS    HVY SNOW  23  22  96 VRB3      30.04R VSB 1/4
ANACONDA         N/A     30  25  80 N8        30.10R WCI  23
DEER LODGE       N/A     28  25  86 N6        30.12S WCI  22
EUREKA           N/A     37  25  60 MISG      30.09R
HAMILTON         N/A     36  27  69 CALM      30.16R
PLAINS           N/A     41  25  53 CALM      30.13R
RONAN            N/A     37  27  65 CALM      30.13S
$$

MTZ008-052>055-230000-
SOUTHWEST MONTANA

CITY           SKY/WX    TMP DP  RH WIND       PRES   REMARKS
BOZEMAN        CLOUDY    29  22  75 S5        30.11
DILLON         PTSUNNY   23  21  92 SW16      30.08R WCI  10
ENNIS          CLOUDY    28  19  69 S15       30.14R WCI  17
W YELLOWSTONE  CLOUDY    21  16  79 SW8       30.11R WCI  12
THREE FORKS      N/A     33  22  64 CALM      30.08R
TWIN BRIDGES     N/A     32  17  54 CALM      30.09R
$$

MTZ009-010-012-014-046-048-049-054-230000-
EAST SLOPES AND CENTRAL MONTANA

CITY           SKY/WX    TMP DP  RH WIND       PRES   REMARKS
CUT BANK       FAIR      36  18  48 W32G40    29.92S WCI  23
GREAT FALLS    FAIR      40  15  36 W22G35    30.00S
MALMSTROM AFB  FAIR      40  18  41 W14G31    30.01S
HELENA         FAIR      30  22  72 CALM      30.10R
AUGUSTA        FAIR      33  17  53 W24G33    29.99R WCI  20
BOWMANS CRNR   FAIR      33  22  65 SW17      30.00R WCI  22
CHOTEAU          N/A     36  16  44 W24G31    29.98R WCI  24
FAIRFIELD      FAIR      37  17  44 W18G25    30.00R WCI  27
POWER          FAIR      34  19  56 W13       30.00R WCI  25
RAYNESFORD     FAIR      39  16  39 SW16      30.02R WCI  30
ULM            FAIR      39  19  44 W20G28    30.02R WCI  29
WHITE SULPHUR    N/A     28  19  69 S16       30.03F WCI  17
$$

MTZ011-013-016-021-045-047-050-051-230000-
NORTH CENTRAL MONTANA

CITY           SKY/WX    TMP DP  RH WIND       PRES   REMARKS
HAVRE          FAIR      34  27  75 SW18      30.00R WCI  23
LEWISTOWN      FAIR      32  25  75 SW6       30.01R WCI  26
N BAR RANCH    FAIR      34  19  55 NW14      30.01R WCI  24
CHINOOK          N/A     37  25  60 W12       29.99R WCI  30
DENTON         MOCLDY    36  22  56 MISG      29.98R
GEYSER         MOCLDY    35  20  52 W20       29.99R WCI  25
GRASS RANGE    MOCLDY    37  19  47 W14       29.96R WCI  28
STANFORD       MOCLDY    36  16  44 W18       30.00R WCI  25
WINIFRED       FAIR      36  22  58 W10       30.00  WCI  28
$$

MTZ017>020-022>027-061-062-230000-
NORTHEAST MONTANA

CITY           SKY/WX    TMP DP  RH WIND       PRES   REMARKS
GLASGOW        FAIR      19  14  81 CALM      29.98R
GLENDIVE       FAIR      21  16  81 S3        30.01R
JORDAN           N/A     33  26  75 W7        30.00R WCI  27
MALTA          CLEAR     21  18  86 W6        29.99R WCI  14
SIDNEY         FAIR      28  21  75 SW9       29.99R WCI  19
WOLF POINT     FAIR      20  13  74 W7        30.00S WCI  11
PLENTYWOOD       N/A     27  21  80 CALM      29.93S
POPLAR           N/A     21  14  73 W7        30.00S WCI  13
SCOBEY           N/A     33  19  56 S2        29.92S
$$

MTZ028>42-056>058-230000-
SOUTHCENTRAL AND SOUTHEAST MONTANA

CITY           SKY/WX    TMP DP  RH WIND       PRES   REMARKS
BAKER          FAIR      30  20  66 W9        30.00R WCI  22
BILLINGS       CLOUDY    33  20  58 SW13      30.04R WCI  24
LIVINGSTON     CLOUDY    32  24  72 W18       30.07R WCI  20
MILES CITY     MOCLDY    31  23  72 W8        30.03R WCI  23
BIG TIMBER     CLEAR     34  21  60 W29       30.06S WCI  20
EKALAKA          N/A     26  14  60 W3        29.98R
FORSYTH          N/A     37  21  52 W7        30.03S
HARLOWTON      MOCLDY    32  23  70 W33       30.00S WCI  16
LAUREL           N/A     34  19  55 SW9       30.06R WCI  26
$$

REGIONAL REPORTS...DAKOTAS

CITY           SKY/WX    TMP DP  RH WIND       PRES   REMARKS
WILLISTON      FAIR      26  18  71 SW6       29.98R WCI  19
MINOT          CLOUDY    21  18  88 S8        30.00S FOG     WCI  11
DICKINSON      FAIR      30  21  69 W10       29.95R WCI  21
BEACH          FAIR      27  19  74 W12       30.01R WCI  16
CROSBY         FAIR      25  19  80 S8        29.95S WCI  16
TIOGA          FAIR      23  21  93 SW5       29.97R
WATFORD CITY   FAIR      30  23  74 SW6       29.98R WCI  24
BISMARCK       CLOUDY    23  21  92 CALM      30.04R FOG
GRAND FORKS    CLOUDY    26  21  81 NE13      30.07R WCI  15
FARGO          CLOUDY    26  21  81 N17       30.01R WCI  13
BUFFALO SD       N/A     32  20  61 W9        29.92R WCI  24
RAPID CITY     FAIR      37  19  48 N21       29.97R WCI  26
$$

REGIONAL REPORTS...WYOMING/IDAHO/WASHINGTON

CITY           SKY/WX    TMP DP  RH WIND       PRES   REMARKS
GILLETTE       FAIR      28  18  66 W13       30.02R WCI  17
SHERIDAN       CLOUDY    34  22  61 CALM      30.04R
BUFFALO WY     CLOUDY    34  16  47 CALM      30.03R
CODY           FAIR      31  17  56 NW7       30.04R WCI  24
YELLOWSTONE LA   N/A     17  13  84 CALM      30.10R
IDAHO FALLS    FLURRIES  28  25  88 S9        30.20S WCI  19
SALMON         MIX PCPN  30  25  81 CALM      30.20R
BOISE          FAIR      44  29  55 NW10      30.25R
SPOKANE        PTSUNNY   38  33  82 SW17      30.16R WCI  28
$$

REGIONAL REPORTS...ALBERTA

CITY           SKY/WX    TMP DP  RH WIND       PRES   REMARKS
CALGARY        MOCLDY    39   9  28 W17       29.87R WCI  30
CARDSTON         N/A     37  16  41 W16G24      N/A  WCI  28
EDMONTON       MOCLDY    25  19  80 W3        29.86R
FORT MCMURRAY  CLOUDY    10   7  85 E6        29.90  WCI   1
HIGH LEVEL     MOCLDY     7   3  85 SE2       29.94S
LETHBRIDGE     PTCLDY    39  19  45 W21G29    29.93R WCI  29
LLOYDMINSTER   CLOUDY    21  19  93 W12       29.84R FOG     WCI   9
MEDICINE HAT   PTCLDY    39  27  60 S14       29.91R WCI  31
MILK RIVER       N/A     36  23  60 W23         N/A  WCI  24
PEACE RIVER    CLOUDY    21  19  93 S3        29.87R
PINCHER CREEK  CLEAR     32  21  64 W18G32    29.93R WCI  20
WATERTON GATE    N/A     34  16  47 SW26G38     N/A  WCI  21
$$

REGIONAL REPORTS...SASKATCHEWAN

CITY           SKY/WX    TMP DP  RH WIND       PRES   REMARKS
CORONACH         N/A     30  21  69 W12         N/A  WCI  21
CYPRESS HILLS    N/A     34  12  40 W13G24      N/A  WCI  25
ESTEVAN        MOCLDY    19  18  93 E8        29.95R WCI   9
MOOSE JAW        N/A     36  23  60 SW14        N/A  WCI  27
PRINCE ALBERT  FLURRIES  12   9  85 E8        29.88S WCI   1
REGINA         MOCLDY    23  19  86 S8        29.86R WCI  14
ROCKGLEN         N/A     28  19  69 W17G24      N/A  WCI  16
SASKATOON      PTCLDY    23  18  80 W7        29.85R WCI  15
SWIFT CURRENT  CLEAR     36  19  51 W18G24    29.84R WCI  25
VAL MARIE        N/A     28  19  69 W7          N/A  WCI  21
$$




USA.gov is the U.S. government's official web portal to all federal, state and local government web resources and services.